TimeCDT,TemperatureF,Dew PointF,Humidity,Sea Level PressureIn,VisibilityMPH,Wind Direction,Wind SpeedMPH,Gust SpeedMPH,PrecipitationIn,Events,Conditions,WindDirDegrees,DateUTC
12:53 AM,68.0,53.1,59,29.60,10.0,SSE,13.8,26.5,N/A,,Clear,150,2014-05-19 05:53:00
1:15 AM,69.1,54.0,58,29.59,10.0,South,36.8,52.9,N/A,,Squalls,170,2014-05-19 06:15:00
1:53 AM,66.9,54.0,63,29.57,10.0,SSE,27.6,40.3,N/A,,Clear,160,2014-05-19 06:53:00
2:53 AM,64.9,54.0,68,29.55,10.0,South,24.2,31.1,N/A,,Clear,170,2014-05-19 07:53:00
3:53 AM,66.0,55.0,68,29.59,10.0,SSW,29.9,41.4,0.00,,Mostly Cloudy,200,2014-05-19 08:53:00
4:53 AM,64.9,55.0,70,29.49,10.0,SE,11.5,25.3,0.00,Rain,Light Rain,130,2014-05-19 09:53:00
5:53 AM,63.0,55.9,78,29.53,10.0,South,21.9,32.2,0.00,,Clear,170,2014-05-19 10:53:00
6:53 AM,62.1,55.9,80,29.56,10.0,South,18.4,29.9,N/A,,Clear,170,2014-05-19 11:53:00
8:53 AM,66.9,57.0,70,29.59,10.0,SSW,17.3,-,N/A,,Clear,210,2014-05-19 13:53:00
9:53 AM,71.1,59.0,66,29.59,10.0,West,13.8,-,N/A,,Partly Cloudy,260,2014-05-19 14:53:00
10:53 AM,72.0,59.0,64,29.57,10.0,West,12.7,-,N/A,,Clear,280,2014-05-19 15:53:00
11:53 AM,75.0,59.0,57,29.58,10.0,NW,10.4,-,N/A,,Partly Cloudy,310,2014-05-19 16:53:00
1:53 PM,78.1,57.9,50,29.60,10.0,NNW,15.0,-,N/A,,Clear,340,2014-05-19 18:53:00
2:53 PM,77.0,52.0,42,29.63,10.0,NW,19.6,27.6,N/A,,Clear,320,2014-05-19 19:53:00
3:53 PM,77.0,52.0,42,29.64,10.0,NNW,20.7,-,N/A,,Clear,330,2014-05-19 20:53:00
4:53 PM,73.9,51.1,45,29.66,10.0,NNW,15.0,-,N/A,,Clear,340,2014-05-19 21:53:00
5:53 PM,77.0,52.0,42,29.68,10.0,NNW,9.2,-,N/A,,Clear,340,2014-05-19 22:53:00
6:53 PM,75.0,52.0,44,29.69,10.0,NNW,10.4,-,N/A,,Clear,340,2014-05-19 23:53:00
7:04 PM,75.0,53.1,46,29.72,10.0,NNW,10.4,-,N/A,,Partly Cloudy,340,2014-05-20 00:04:00
7:53 PM,70.0,55.0,59,29.71,10.0,NW,9.2,-,N/A,,Clear,320,2014-05-20 00:53:00
8:53 PM,66.0,52.0,60,29.73,10.0,NW,5.8,-,N/A,,Clear,310,2014-05-20 01:53:00
9:53 PM,63.0,51.1,65,29.76,10.0,West,4.6,-,N/A,,Clear,260,2014-05-20 02:53:00
10:53 PM,61.0,51.1,70,29.78,10.0,SW,6.9,-,N/A,,Clear,230,2014-05-20 03:53:00
11:53 PM,61.0,50.0,67,29.81,10.0,WSW,8.1,-,N/A,,Clear,240,2014-05-20 04:53:00